SKYSAT-C10 (42988 NORAD) Tracking and Keplerian Element Data

This shows tracking and keplerian element data for the satellite.

Feedback or suggestion? Click here.




ElementValue
Catalog42988
NameSKYSAT-C10
Epoch Orbit14924
Epoch Day189.87809843
Epoch Year2020
RAAN303.6054
Inclination97.2373
Eccentricity0.0004505
Argument of Perigee40.0169
Mean Anonmoly320.1408
Mean Motion15.3820831
Decay Rate9.35E-06
L11 42988U 17068B 20189.87809843 .00000935 00000-0 26967-4 0 9991
L22 42988 97.2373 303.6054 0004505 40.0169 320.1408 15.38208310149248

Live tracking and technical data element details for SKYSAT-C10 (NORAD 42988). SKYSAT-C10 can be tracked NOW for your location showing map with azimuth and elevation plus other details from your city location.

Track the satellite on the map from your city or location and see movement details for azimuth, elevation, latitude, longitude, range, height, and movement on the map or in text.







IsCatalogInMostPopularTable: catalog: 42988, numindb: 468
Update: records affected: 1



GetName: 42988 SKYSAT-C10

Hit Count: updated at: Wed, 08 Jul 2020 22:27:00 GMT